Tracking 19176 objects as of 27-May-2018
HD Live streaming from Space Station
objects crossing your sky now

FENGYUN 1C DEB

Track FENGYUN 1C DEB now!
10-day predictions


NORAD ID: 29931
Int'l Code: 1999-025JD
Perigee: 868.5 km
Apogee: 915.5 km
Inclination: 99.2 °
Period: 102.7 minutes
Semi major axis: 7262 km
RCS: 0.0957 m2 (small)
Launch date: May 10, 1999
Source: People's Republic of China (PRC)
Launch site: Taiyaun Space Center, China (TSC)

Note: This is SATELLITE DEBRIS
aabbcc
Your satellite tracking list
Your tracking list is empty




NASA's NSSDC Master Catalog

Two Line Element Set (TLE):
1 29931U 99025JD  18146.58930292 +.00000132 +00000-0 +11459-3 0  9996
2 29931 099.1820 165.8419 0032357 179.7642 297.4195 14.02588279581518
Source of the keplerian elements: AFSPC